Date String (YYYY-MM-DD hh:mm:ss) UTC,Instrument flags,absolute air pressure of the measurement (hPa),sample flow rate (lpm),inlet stack bypass flow (lpm),air temperature of the measurement (°C),ambient temperature measured by the external sensor (°C),aerosol sample conditioner tube jacket temperature (°C),OPC LED temperature (°C),internal box temperature (°C),relative humidity of the measurement (%),span deviation,mass concentration of particles derived from Lorenz-Mie calculation of OPC scattering (μg/m³),mass concentration of particles derived from Lorenz-Mie calculation of OPC scattering (μg/m³),mass concentration of particles derived from Lorenz-Mie calculation of OPC scattering (μg/m³)
DateTimeUTC,F1_M11,P_M11,Q1_M11,Q2_M11,T1_M11,T2_M11,T3_M11,T4_M11,T5_M11,U1_M11,ZSPAN_M11,X2_M11,X0_M11,X1_M11
2023-12-20 06:00:00,SystemResetWarning,0827.1,5.00,000.00,024.9,023.8,000.0,033.2,026.3,11.8,0000.0,0000.78,0001.38,0000.65
2023-12-20 06:01:00,SystemResetWarning,0827.0,4.99,000.00,024.9,023.8,000.0,033.2,026.3,11.8,0000.0,0000.78,0001.40,0000.66
2023-12-20 06:02:00,SystemResetWarning,0827.0,5.00,000.00,024.9,023.8,000.0,033.2,026.3,11.8,0000.0,0000.76,0002.13,0000.66
2023-12-20 06:03:00,SystemResetWarning,0827.0,5.00,000.00,024.8,023.7,000.0,033.2,026.2,11.8,0000.0,0000.77,0002.42,0000.66
2023-12-20 06:04:00,SystemResetWarning,0827.0,5.02,000.00,024.8,023.7,000.0,033.2,026.3,11.8,0000.0,0000.78,0002.44,0000.66
2023-12-20 06:05:00,SystemResetWarning,0827.0,4.99,000.00,024.8,023.7,000.0,033.2,026.3,11.9,0000.0,0000.78,0002.41,0000.67
2023-12-20 06:06:00,SystemResetWarning,0827.1,4.98,000.00,024.8,023.7,000.0,033.2,026.3,11.8,0000.0,0000.79,0002.43,0000.66
2023-12-20 06:07:00,SystemResetWarning,0827.1,5.01,000.00,024.8,023.7,000.0,033.2,026.3,11.8,0000.0,0000.80,0002.46,0000.67
2023-12-20 06:08:00,SystemResetWarning,0827.0,5.01,000.00,024.8,023.7,000.0,033.2,026.2,11.9,0000.0,0000.79,0002.27,0000.67
2023-12-20 06:09:00,SystemResetWarning,0827.0,4.99,000.00,024.8,023.7,000.0,033.2,026.2,11.9,0000.0,0000.79,0002.24,0000.67
2023-12-20 06:10:00,SystemResetWarning,0827.1,4.99,000.00,024.8,023.7,000.0,033.2,026.2,11.8,0000.0,0000.79,0002.23,0000.67
2023-12-20 06:11:00,SystemResetWarning,0827.1,5.00,000.00,024.8,023.7,000.0,033.2,026.2,11.9,0000.0,0000.79,0002.24,0000.67
2023-12-20 06:12:00,SystemResetWarning,0827.1,5.01,000.00,024.8,023.7,000.0,033.2,026.2,11.9,0000.0,0000.78,0002.34,0000.66
2023-12-20 06:13:00,SystemResetWarning,0827.0,4.99,000.00,024.8,023.7,000.0,033.2,026.2,11.8,0000.0,0000.77,0002.48,0000.65
2023-12-20 06:14:00,SystemResetWarning,0827.0,5.01,000.00,024.8,023.7,000.0,033.2,026.1,11.9,0000.0,0000.76,0001.46,0000.65
2023-12-20 06:15:00,SystemResetWarning,0827.1,5.00,000.00,024.8,023.7,000.0,033.2,026.1,11.8,0000.0,0000.74,0001.38,0000.64
2023-12-20 06:16:00,SystemResetWarning,0827.0,4.99,000.00,024.8,023.7,000.0,033.2,026.2,11.9,0000.0,0000.73,0001.37,0000.63
2023-12-20 06:17:00,SystemResetWarning,0827.0,5.00,000.00,024.8,023.7,000.0,033.1,026.2,12.0,0000.0,0000.71,0001.33,0000.61
2023-12-20 06:18:00,SystemResetWarning,0827.0,5.00,000.00,024.8,023.7,000.0,033.1,026.2,11.9,0000.0,0000.67,0001.29,0000.59
2023-12-20 06:19:00,SystemResetWarning,0827.0,4.99,000.00,024.8,023.7,000.0,033.1,026.2,11.9,0000.0,0000.65,0001.27,0000.57
2023-12-20 06:20:00,SystemResetWarning,0827.0,4.99,000.00,024.8,023.7,000.0,033.1,026.2,11.9,0000.0,0000.66,0001.29,0000.56
2023-12-20 06:21:00,SystemResetWarning,0827.0,5.00,000.00,024.8,023.7,000.0,033.1,026.2,11.8,0000.0,0000.66,0001.29,0000.55
2023-12-20 06:22:00,SystemResetWarning,0827.0,5.01,000.00,024.8,023.7,000.0,033.1,026.2,11.8,0000.0,0000.64,0001.26,0000.53
2023-12-20 06:23:00,SystemResetWarning,0827.0,5.01,000.00,024.8,023.7,000.0,033.1,026.2,11.9,0000.0,0000.62,0001.20,0000.52
2023-12-20 06:24:00,SystemResetWarning,0827.0,5.00,000.00,024.8,023.7,000.0,033.1,026.3,12.0,0000.0,0000.60,0000.81,0000.51
2023-12-20 06:25:00,SystemResetWarning,0827.0,4.99,000.00,024.8,023.7,000.0,033.1,026.3,12.0,0000.0,0000.59,0000.77,0000.50
2023-12-20 06:26:00,SystemResetWarning,0827.0,4.99,000.00,024.8,023.8,000.0,033.1,026.3,12.0,0000.0,0000.60,0000.80,0000.50
2023-12-20 06:27:00,SystemResetWarning,0827.0,5.01,000.00,024.8,023.8,000.0,033.1,026.3,11.8,0000.0,0000.60,0000.83,0000.49
2023-12-20 06:28:00,SystemResetWarning,0827.0,5.01,000.00,024.8,023.8,000.0,033.1,026.3,11.8,0000.0,0000.63,0000.93,0000.49
2023-12-20 06:29:00,SystemResetWarning,0827.0,5.00,000.00,024.8,023.8,000.0,033.1,026.3,11.8,0000.0,0000.64,0000.95,0000.50
2023-12-20 06:30:00,SystemResetWarning,0827.0,5.00,000.00,024.8,023.8,000.0,033.1,026.3,11.8,0000.0,0000.63,0000.94,0000.50
2023-12-20 06:31:00,SystemResetWarning,0827.0,5.00,000.00,024.8,023.8,000.0,033.1,026.3,11.9,0000.0,0000.63,0000.92,0000.50
2023-12-20 06:32:00,SystemResetWarning,0827.0,4.99,000.00,024.8,023.8,000.0,033.1,026.3,11.9,0000.0,0000.62,0000.93,0000.50
2023-12-20 06:33:00,SystemResetWarning,0827.0,5.01,000.00,024.8,023.8,000.0,033.1,026.3,11.9,0000.0,0000.62,0001.55,0000.50
2023-12-20 06:34:00,SystemResetWarning,0827.0,5.02,000.00,024.8,023.8,000.0,033.1,026.3,11.8,0000.0,0000.62,0002.31,0000.50
2023-12-20 06:35:00,SystemResetWarning,0827.0,5.01,000.00,024.8,023.8,000.0,033.1,026.3,11.8,0000.0,0000.62,0002.30,0000.50
2023-12-20 06:36:00,SystemResetWarning,0827.0,4.98,000.00,024.8,023.8,000.0,033.1,026.3,11.8,0000.0,0000.62,0002.30,0000.50
2023-12-20 06:37:00,SystemResetWarning,0827.0,4.99,000.00,024.8,023.7,000.0,033.1,026.2,11.8,0000.0,0000.63,0002.39,0000.50
2023-12-20 06:38:00,SystemResetWarning,0827.0,5.00,000.00,024.8,023.7,000.0,033.1,026.2,11.8,0000.0,0000.63,0002.40,0000.50
2023-12-20 06:39:00,SystemResetWarning,0827.0,5.01,000.00,024.8,023.8,000.0,033.1,026.2,11.8,0000.0,0000.61,0002.33,0000.50
2023-12-20 06:40:00,SystemResetWarning,0827.0,5.01,000.00,024.8,023.7,000.0,033.1,026.2,11.8,0000.0,0000.62,0002.35,0000.50
2023-12-20 06:41:00,SystemResetWarning,0827.0,5.00,000.00,024.8,023.8,000.0,033.1,026.2,11.9,0000.0,0000.64,0002.42,0000.50
2023-12-20 06:42:00,SystemResetWarning,0827.0,4.99,000.00,024.8,023.7,000.0,033.1,026.2,12.0,0000.0,0000.66,0002.48,0000.49
2023-12-20 06:43:00,SystemResetWarning,0827.0,4.99,000.00,024.8,023.7,000.0,033.1,026.2,11.9,0000.0,0000.66,0002.49,0000.50
2023-12-20 06:44:00,SystemResetWarning,0827.0,4.99,000.00,024.8,023.7,000.0,033.1,026.2,11.9,0000.0,0000.70,0002.18,0000.51
2023-12-20 06:45:00,SystemResetWarning,0827.0,5.01,000.00,024.8,023.7,000.0,033.1,026.2,12.0,0000.0,0000.71,0001.31,0000.51
2023-12-20 06:46:00,SystemResetWarning,0827.0,5.01,000.00,024.8,023.8,000.0,033.1,026.2,11.8,0000.0,0000.72,0001.32,0000.51
2023-12-20 06:47:00,SystemResetWarning,0827.0,4.99,000.00,024.8,023.8,000.0,033.1,026.2,11.7,0000.0,0000.72,0002.47,0000.51
2023-12-20 06:48:00,SystemResetWarning,0827.0,4.99,000.00,024.8,023.8,000.0,033.1,026.3,11.8,0000.0,0000.70,0002.42,0000.51
2023-12-20 06:49:00,SystemResetWarning,0827.0,5.00,000.00,024.8,023.9,000.0,033.1,026.3,11.9,0000.0,0000.69,0002.34,0000.51
2023-12-20 06:50:00,SystemResetWarning,0827.0,5.01,000.00,024.8,023.9,000.0,033.1,026.3,12.0,0000.0,0000.67,0002.31,0000.52
2023-12-20 06:51:00,SystemResetWarning,0827.0,4.98,000.00,024.8,023.9,000.0,033.1,026.3,12.1,0000.0,0000.65,0002.27,0000.51
2023-12-20 06:52:00,SystemResetWarning,0827.0,5.01,000.00,024.8,024.0,000.0,033.1,026.2,12.0,0000.0,0000.65,0002.24,0000.52
2023-12-20 06:53:00,SystemResetWarning,0826.9,5.01,000.00,024.9,024.0,000.0,033.1,026.3,12.1,0000.0,0000.62,0002.71,0000.52
2023-12-20 06:54:00,SystemResetWarning,0826.9,4.99,000.00,024.9,023.9,000.0,033.1,026.3,12.1,0000.0,0000.62,0003.34,0000.52
2023-12-20 06:55:00,SystemResetWarning,0826.9,4.98,000.00,024.9,023.9,000.0,033.1,026.3,12.1,0000.0,0000.60,0003.19,0000.52
2023-12-20 06:56:00,SystemResetWarning,0826.9,5.00,000.00,024.8,023.9,000.0,033.1,026.3,12.1,0000.0,0000.61,0003.17,0000.53
2023-12-20 06:57:00,SystemResetWarning,0826.9,5.02,000.00,024.8,023.9,000.0,033.1,026.3,12.1,0000.0,0000.62,0003.20,0000.55
2023-12-20 06:58:00,SystemResetWarning,0826.9,5.00,000.00,024.9,023.9,000.0,033.1,026.3,12.1,0000.0,0000.64,0002.57,0000.56
2023-12-20 06:59:00,SystemResetWarning,0826.9,4.99,000.00,024.9,023.9,000.0,033.1,026.3,12.1,0000.0,0000.65,0002.06,0000.57
